Content
SEND FEEDBACK

Daily
Averages
Monthly
Summary
United States of America

MIDDLETOWN, OHIO


Home > North America > United States > Ohio
Elevation: 647 feet     Latitude: 39 32N     Longitude: 084 23W

WEATHER
 
SELECT A DAY
Number of Records: 190,754;   Date Range: 4/25/06 - 9/3/14
 
SHARE

PRINT THIS DATA

[ ← Previous Day ]
WEATHER ALMANAC - FEBRUARY 13, 2013
[ Next Day → ]
[ °C ]   °F
Weather ElementAverageHighLow
Temperature32.1 °F37.6 °F (4:35 pm)27.9 °F (11:35 pm)
Dewpoint30.6 °F32.4 °F (12:35 pm)27.9 °F (11:35 pm)
Humidity94.4 %100 % (5:35 am)76 % (4:55 pm)
Barometer29.86 in29.92 in (12:35 am)29.80 in (7:55 am)
Wind Speed4.3 mph9.2 mph (7:35 am)
Weather ElementAverage
Visibility6.9 mi
Wind DirectionESE (113.1 °)

Weather ElementTotal
Precipitation---
Heating Degree Days32.3 (Base 65)
Averaged from 71 records on February 13, 2013
WEATHER CONDITIONS BREAKOUT
WIND DIRECTION BREAKOUT
WEATHER BY HOUR - FEBRUARY 13, 2013
[ °C ]   °F
Local TimeTemperatureDewpointHumidityBarometerVisibilityWind DirectionWind SpeedGust SpeedPrecipitationEventsConditions
12:35 AM32.5 °F30.6 °F92 %29.92 in10.0 miNNE (30°)3.5 mphClear
12:55 AM32.5 °F31.1 °F94 %29.92 in10.0 miNNE (30°)3.5 mphClear
1:15 AM32.5 °F31.1 °F94 %29.92 in10.0 miNNE (30°)6.9 mphClear
1:35 AM32.5 °F31.5 °F96 %29.91 in10.0 miNNE (30°)8.1 mphClear
1:55 AM32.5 °F31.6 °F96 %29.91 in7.0 miNorth (10°)8.1 mphClear
2:15 AM32.5 °F31.8 °F97 %29.91 in7.0 miNorth (10°)6.9 mphClear
2:35 AM32.5 °F32.0 °F98 %29.91 in7.0 miNNE (20°)6.9 mphClear
2:55 AM32.5 °F32.0 °F98 %29.91 in7.0 miNNE (30°)6.9 mphClear
3:15 AM32.5 °F31.8 °F97 %29.91 in7.0 miNNE (20°)5.8 mphScattered Clouds
3:35 AM32.5 °F31.8 °F97 %29.90 in7.0 miNNE (30°)5.8 mphScattered Clouds
3:55 AM30.2 °F29.3 °F96 %29.90 in7.0 miNorth (10°)3.5 mphMostly Cloudy
4:15 AM30.2 °F29.7 °F98 %29.89 in7.0 miNorth (10°)5.8 mphOvercast
4:35 AM30.2 °F29.7 °F98 %29.89 in7.0 miNNE (20°)4.6 mphOvercast
4:55 AM29.3 °F28.9 °F99 %29.87 in7.0 miNNE (20°)8.1 mphScattered Clouds
5:15 AM29.1 °F28.9 °F99 %29.87 in5.0 miNNE (30°)6.9 mphScattered Clouds
5:35 AM30.2 °F30.2 °F100 %29.86 in5.0 miNE (40°)6.9 mphOvercast
5:55 AM30.2 °F30.0 °F99 %29.85 in5.0 miNE (50°)6.9 mphOvercast
6:15 AM30.2 °F30.0 °F99 %29.84 in5.0 miNE (50°)6.9 mphOvercast
6:35 AM30.2 °F29.8 °F99 %29.83 in5.0 miNE (40°)4.6 mphOvercast
6:55 AM30.2 °F29.7 °F98 %29.81 in5.0 miNE (40°)6.9 mphOvercast
7:15 AM30.2 °F29.3 °F96 %29.81 in5.0 miNNE (30°)5.8 mphOvercast
7:35 AM30.6 °F29.5 °F96 %29.81 in7.0 miNNE (30°)9.2 mphOvercast
7:55 AM30.9 °F29.7 °F95 %29.80 in7.0 miNNE (30°)6.9 mphOvercast
8:15 AM32.5 °F31.6 °F96 %29.82 in5.0 miNE (40°)6.9 mphOvercast
8:35 AM32.5 °F31.5 °F96 %29.83 in5.0 miNNE (20°)4.6 mphOvercast
8:55 AM32.5 °F31.1 °F94 %29.84 in5.0 miNNE (30°)5.8 mphOvercast
9:15 AM32.5 °F31.1 °F94 %29.86 in5.0 miCalmOvercast
9:35 AM32.5 °F30.7 °F93 %29.86 in7.0 miNorth (360°)5.8 mphOvercast
9:55 AM32.5 °F30.7 °F93 %29.86 in7.0 miNorth (10°)4.6 mphOvercast
10:15 AM32.5 °F30.7 °F93 %29.86 in7.0 miNorth (360°)3.5 mphOvercast
10:35 AM32.5 °F30.6 °F92 %29.87 in7.0 miCalmOvercast
10:55 AM32.5 °F30.6 °F92 %29.86 in7.0 miCalmOvercast
11:15 AM32.5 °F30.6 °F92 %29.86 in7.0 miNW (320°)3.5 mphOvercast
11:35 AM30.2 °F29.5 °F97 %29.85 in0.5 miCalmSnowSnow
11:55 AM30.7 °F30.6 °F99 %29.83 in0.8 miCalmSnowLight Snow
12:15 PM30.2 °F30.2 °F100 %29.83 in1.2 miCalmSnowLight Snow
12:35 PM32.4 °F32.4 °F100 %29.82 in2.5 miCalmOvercast
12:55 PM32.5 °F32.2 °F99 %29.82 in5.0 miCalmOvercast
1:15 PM32.5 °F31.5 °F96 %29.80 in7.0 miNW (320°)3.5 mphOvercast
1:35 PM32.5 °F30.7 °F93 %29.80 in10.0 miCalmOvercast
1:55 PM32.5 °F30.6 °F92 %29.80 in10.0 miNorth (350°)4.6 mphOvercast
2:15 PM32.5 °F30.2 °F91 %29.80 in10.0 miNW (310°)3.5 mphOvercast
2:35 PM34.2 °F31.8 °F91 %29.80 in10.0 miCalmOvercast
2:55 PM35.1 °F32.0 °F89 %29.80 in10.0 miWNW (290°)5.8 mphOvercast
3:15 PM35.1 °F31.5 °F87 %29.80 in10.0 miWNW (290°)4.6 mphOvercast
3:35 PM35.1 °F30.9 °F85 %29.80 in10.0 miCalmOvercast
3:55 PM35.1 °F30.0 °F82 %29.81 in10.0 miWest (280°)5.8 mphMostly Cloudy
4:15 PM37.4 °F30.9 °F77 %29.81 in10.0 miCalmScattered Clouds
4:35 PM37.6 °F31.5 °F79 %29.81 in10.0 miCalmClear
4:55 PM37.6 °F30.7 °F76 %29.81 in10.0 miWSW (240°)5.8 mphClear
5:15 PM37.6 °F30.9 °F77 %29.82 in10.0 miSW (230°)6.9 mphClear
5:35 PM37.6 °F31.3 °F78 %29.82 in10.0 miSW (220°)5.8 mphClear
5:55 PM35.1 °F30.2 °F82 %29.83 in10.0 miSW (230°)6.9 mphClear
6:15 PM32.5 °F29.7 °F89 %29.84 in10.0 miSSW (210°)6.9 mphClear
6:35 PM32.5 °F30.4 °F92 %29.84 in10.0 miCalmClear
6:55 PM32.5 °F30.9 °F94 %29.85 in10.0 miSSW (210°)4.6 mphClear
7:15 PM32.5 °F31.6 °F96 %29.87 in7.0 miSW (220°)5.8 mphClear
7:35 PM32.5 °F32.0 °F98 %29.87 in7.0 miSSW (210°)6.9 mphClear
7:55 PM32.2 °F31.8 °F99 %29.87 in7.0 miSouth (190°)3.5 mphClear
8:15 PM32.5 °F32.2 °F99 %29.88 in5.0 miSouth (190°)3.5 mphClear
8:35 PM30.2 °F30.0 °F99 %29.88 in5.0 miSouth (190°)5.8 mphClear
8:55 PM30.4 °F30.2 °F99 %29.89 in5.0 miSW (230°)3.5 mphClear
9:15 PM30.2 °F30.2 °F100 %29.89 in5.0 miSSW (210°)5.8 mphClear
9:35 PM30.2 °F30.2 °F100 %29.90 in5.0 miSW (220°)4.6 mphClear
9:55 PM30.6 °F30.6 °F100 %29.90 in5.0 miCalmClear
10:15 PM30.2 °F30.2 °F100 %29.90 in7.0 miSW (230°)3.5 mphClear
10:35 PM30.2 °F30.2 °F100 %29.90 in5.0 miWSW (240°)3.5 mphScattered Clouds
10:55 PM30.2 °F30.2 °F100 %29.90 in5.0 miSW (230°)3.5 mphScattered Clouds
11:15 PM28.9 °F28.9 °F100 %29.90 in5.0 miWSW (240°)3.5 mphClear
11:35 PM27.9 °F27.9 °F100 %29.90 in4.0 miSW (230°)4.6 mphClear
11:55 PM27.9 °F27.9 °F100 %29.90 in4.0 miWSW (240°)3.5 mphScattered Clouds
Hourly data recorded from KMWO, located miles away from Middletown, Ohio







STORIES FROM OUR PARTNERS